• Join FlightAware (Why Join?)
  • Login
  • US Flag 
06:18AM EST


 

Airport Tracker/Info


-or-


 

Live Flight TrackerFlight Track Log ✈ GJS3707 ✈ 18-May-2013 ✈ KALB - KORD

Flight Track Log - Related Links

Times and Time Zones

All times are in EDT time to prevent confusion due to time zone crossing. See the GJS3707 flight status page for this flight to view local times or setup timezone preferences in your user account.

Time Position Orientation Groundspeed Altitude Reporting Facility
EDT Latitude Longitude Course Direction KTS MPH feet Rate Location/Type
07:07AM 42.7653 -73.8061 276° West 146 168 1,100  Level Boston Center
07:08AM 42.8211 -73.8469 332° Northwest 223 257 3,000 2,268 Climbing Boston Center
07:09AM 42.8661 -73.9075 315° West 242 278 5,900 2,649 Climbing Boston Center
07:09AM 42.8786 -73.9164 332° Northwest 237 273 6,400 2,289 Climbing Boston Center
07:10AM 43.0089 -74.0799 279° West  Level FlightAware Approximate
07:10AM 42.9278 -73.9742 319° Northwest 268 308 8,800  Level Boston Center
07:11AM 43.0206 -74.2048 276° West  Level FlightAware Approximate
07:11AM 42.9872 -74.0467 318° Northwest 262 302 12,200  Level Boston Center
07:12AM 43.0296 -74.3301 276° West  Level FlightAware Approximate
07:12AM 43.0364 -74.1075 318° Northwest 268 308 13,400  Level Boston Center
07:13AM 43.0825 -74.2253 298° West 306 352 14,400 1,300 Climbing Boston Center
07:14AM 43.0889 -74.3478 274° West 332 382 16,000 1,591 Climbing Boston Center
07:15AM 43.0967 -74.5044 274° West 373 429 17,900 1,909 Climbing Boston Center
07:16AM 43.1058 -74.6697 274° West 378 435 20,200 2,168 Climbing Boston Center
07:17AM 43.1117 -74.8064 273° West 371 427 22,200 1,866 Climbing Boston Center
07:18AM 43.1169 -74.9403 273° West 363 418 23,900 1,450 Climbing Boston Center
07:19AM 43.1222 -75.0800 273° West 363 418 25,100 1,100 Climbing Boston Center
07:20AM 43.1250 -75.2222 272° West 373 429 26,100 1,100 Climbing Boston Center
07:21AM 43.1319 -75.3678 274° West 379 436 27,300 1,250 Climbing Boston Center
07:22AM 43.1383 -75.5133 273° West 384 442 28,600 1,350 Climbing Boston Center
07:23AM 43.1431 -75.6531 273° West 384 442 30,000 1,200 Climbing Boston Center
07:24AM 43.1475 -75.7814 273° West 384 442 31,000 1,000 Climbing Boston Center
07:25AM 43.1519 -75.9183 273° West 379 436 32,000 1,050 Climbing Boston Center
07:26AM 43.1558 -76.0581 272° West 374 430 33,100 888 Climbing Boston Center
07:28AM 43.1603 -76.2964 272° West 365 420 34,500 781 Climbing Cleveland Center
07:29AM 43.1600 -76.4617 270° West 370 426 35,300 700 Climbing Cleveland Center
07:30AM 43.1625 -76.5867 272° West 365 420 35,900 700 Climbing Cleveland Center
07:31AM 43.1608 -76.7236 269° West 365 420 36,700 750 Climbing Cleveland Center
07:32AM 43.1592 -76.8658 269° West 365 420 37,400 650 Climbing Cleveland Center
07:33AM 43.1592 -76.9997 270° West 365 420 38,000 300 Climbing Cleveland Center
07:34AM 43.1572 -77.1394 269° West 365 420 38,000  Level Cleveland Center
07:35AM 43.1550 -77.2819 269° West 365 420 38,000  Level Cleveland Center
07:36AM 43.1550 -77.4269 270° West 370 426 38,000  Level Cleveland Center
07:37AM 43.1528 -77.5753 269° West 381 438 38,000  Level Cleveland Center
07:38AM 43.1522 -77.7231 270° West 386 444 38,000  Level Cleveland Center
07:39AM 43.1494 -77.8656 269° West 386 444 38,000  Level Cleveland Center
07:40AM 43.1486 -78.0108 270° West 386 444 38,000  Level Cleveland Center
07:41AM 43.1453 -78.1503 268° West 381 438 38,000  Level Cleveland Center
07:42AM 43.1442 -78.2928 269° West 381 438 38,000  Level Cleveland Center
07:43AM 43.1425 -78.4350 269° West 381 438 38,000  Level Cleveland Center
07:44AM 43.1369 -78.5775 267° West 387 445 38,000  Level Cleveland Center
07:45AM 43.1350 -78.7225 269° West 387 445 38,000  Level Cleveland Center
07:46AM 43.1289 -78.8650 267° West 387 445 38,000  Level Cleveland Center
07:46AM 43.1167 -78.9000 244° Southwest 380 437 38,000  Level Toronto Center
07:47AM 43.1167 -79.0333 270° West 380 437 38,000  Level Toronto Center
07:48AM 43.1167 -79.1833 270° West 380 437 38,000  Level Toronto Center
07:49AM 43.1000 -79.3167 260° West 380 437 38,000  Level Toronto Center
07:50AM 43.1000 -79.4667 270° West 380 437 38,000  Level Toronto Center
07:51AM 43.1000 -79.6167 270° West 380 437 38,000  Level Toronto Center
07:52AM 43.0833 -79.7667 261° West 390 449 38,000  Level Toronto Center
07:53AM 43.0833 -79.9333 270° West 400 460 38,000  Level Toronto Center
07:54AM 43.0833 -80.0667 270° West 400 460 38,000  Level Toronto Center
07:55AM 43.0667 -80.2333 262° West 410 472 38,000  Level Toronto Center
07:56AM 43.0667 -80.3833 270° West 410 472 38,000  Level Toronto Center
07:57AM 43.0667 -80.5500 270° West 410 472 38,000  Level Toronto Center
07:58AM 43.0500 -80.7000 261° West 410 472 38,000  Level Toronto Center
07:59AM 43.0333 -80.8500 261° West 410 472 38,000  Level Toronto Center
08:00AM 43.0167 -81.0000 261° West 410 472 38,000  Level Toronto Center
08:01AM 43.0167 -81.1667 270° West 410 472 38,000  Level Toronto Center
08:02AM 43.0167 -81.3167 270° West 400 460 38,000  Level Toronto Center
08:03AM 43.0167 -81.4500 270° West 390 449 38,000  Level Toronto Center
08:04AM 43.0167 -81.6167 270° West 390 449 38,000  Level Toronto Center
08:05AM 43.0167 -81.7500 270° West 390 449 38,000  Level Toronto Center
08:06AM 43.0000 -81.9167 262° West 400 460 38,000  Level Toronto Center
08:07AM 43.0000 -82.0500 270° West 400 460 38,000  Level Toronto Center
08:08AM 43.0000 -82.2333 270° West 410 472 38,000  Level Toronto Center
08:09AM 43.0000 -82.3667 270° West 410 472 38,000  Level Toronto Center
08:10AM 43.0000 -82.5333 270° West 410 472 38,000 -95 Level Toronto Center
08:11AM 43.0014 -82.7008 271° West 413 475 37,800 -571 Descending Cleveland Center
08:12AM 42.9983 -82.8597 269° West 418 481 36,800 -1,000 Descending Cleveland Center
08:13AM 42.9933 -83.0100 267° West 418 481 35,800 -1,000 Descending Cleveland Center
08:14AM 42.9900 -83.1633 268° West 413 475 34,800 -1,000 Descending Cleveland Center
08:15AM 42.9822 -83.3161 266° West 408 470 33,800 -1,000 Descending Cleveland Center
08:16AM 42.9764 -83.4719 267° West 408 470 32,800 -900 Descending Cleveland Center
08:17AM 42.9703 -83.6250 267° West 403 464 32,000 -400 Descending Cleveland Center
08:18AM 42.9619 -83.7836 266° West 403 464 32,000  Level Cleveland Center
08:19AM 42.9467 -83.9500 263° West 425 489 32,000  Level Cleveland Center
08:20AM 42.9314 -84.1139 263° West 437 503 32,000  Level Cleveland Center
08:21AM 42.9136 -84.2800 262° West 443 510 32,000  Level Cleveland Center
08:22AM 42.9017 -84.4114 263° West 441 507 32,000  Level Chicago Center
08:23AM 42.8850 -84.5753 262° West 438 504 32,000  Level Chicago Center
08:24AM 42.8650 -84.7706 262° West 436 502 32,000  Level Chicago Center
08:25AM 42.8481 -84.9317 262° West 432 497 32,000  Level Chicago Center
08:26AM 42.8308 -85.0944 262° West 434 499 32,000  Level Chicago Center
08:27AM 42.8136 -85.2569 262° West 434 499 32,000 -49 Level Chicago Center
08:28AM 42.7956 -85.4206 262° West 436 502 31,900 -683 Descending Chicago Center
08:29AM 42.7700 -85.5867 258° West 446 513 30,600 -2,016 Descending Chicago Center
08:30AM 42.7394 -85.7572 256° West 461 531 27,800 -2,683 Descending Chicago Center
08:32AM 42.7119 -85.9131 257° West 427 491 25,100 -2,634 Descending Chicago Center
08:33AM 42.6844 -86.0617 256° West 406 467 22,400 -2,459 Descending Chicago Center
08:34AM 42.6586 -86.2033 256° West 390 449 20,100 -1,171 Descending Chicago Center
08:35AM 42.6317 -86.3417 255° West 378 435 20,000 -829 Descending Chicago Center
08:36AM 42.6042 -86.4853 255° West 389 448 18,400 -1,820 Descending Chicago Center
08:37AM 42.5731 -86.6550 256° West 387 445 16,300 -1,951 Descending Chicago Center
08:38AM 42.5458 -86.7886 255° West 370 426 14,400 -1,854 Descending Chicago Center
08:39AM 42.5097 -86.9169 249° West 366 421 12,500 -1,918 Descending Chicago Center
08:40AM 42.4756 -87.0419 250° West 356 410 10,500 -1,220 Descending Chicago Center
08:41AM 42.4406 -87.1639 249° West 350 403 10,000 -244 Descending Chicago Center
08:42AM 42.4067 -87.2861 249° West 348 400 10,000 -492 Level Chicago Center
08:43AM 42.3733 -87.4056 249° West 289 333 9,000 -488 Descending Chicago Center
08:44AM 42.3400 -87.5067 246° West 293 337 9,000 -244 Level Chicago Center
08:45AM 42.2847 -87.5772 223° Southwest 275 316 8,500 -984 Descending Chicago Center
08:46AM 42.2325 -87.6356 220° Southwest 246 283 7,000 -1,366 Descending Chicago Center
08:47AM 42.1869 -87.6853 219° Southwest 218 251 5,700 -1,220 Descending Chicago Center
08:48AM 42.1469 -87.7306 220° Southwest 195 224 4,500 -1,174 Descending Chicago Center
08:48AM 42.1167 -87.7500 205° Southwest 193 222 3,900 -1,055 Descending Chicago TRACON
08:49AM 42.0833 -87.8000 228° Southwest 176 203 2,900 -1,000 Descending Chicago TRACON